2013 CM77

Japanese version
Home page
Updated on April 28, 2013

---------------------------------------------------------------------

* Profile

* Orbital Elements

The following orbital elements are taken from MPO258452

Epoch 2013 Apr. 18.0 TT = JDT 2456400.5                 MPC
M   2.20975              (2000.0)            P               Q
n   0.04945296     Peri.  189.04135     -0.84947152     -0.51791459
a   7.3509113      Node   319.24676     +0.49323599     -0.71160633
e   0.5945333      Incl.    8.88352     +0.18739370     -0.47474300
P  19.9            H   15.9           G   0.15           U   3
From 22 observations 2013 Jan. 22-Mar. 14, mean residual 0".38.

* Magnitudes Graph

        H = 15.9  G = 0.15

---------------------------------------------------------------------

The orbital elements are published at the MPC Ephemerides and Orbital Elements.
The magnitudes graphs are made with Comet for Windows.

---------------------------------------------------------------------

Copyright(C) Seiichi Yoshida (comet@aerith.net). All rights reserved.